This is the latest recevied weather packets stored in our database for station/object HB9TVK-13. If no packets are shown the sender has not sent any weather packets the latest 10 day(s).
| Time | Temp. | Humidity | Pressure | Rain* | Wind** | Luminosity | Snow |
|---|---|---|---|---|---|---|---|
| 1777799837 | 18.33° C | 64% | 1017.7 hPa | 0 mm | - | - | - |
| 1777799237 | 17.78° C | 63% | 1017.7 hPa | 0 mm | - | - | - |
| 1777798637 | 17.22° C | 65% | 1017.7 hPa | 0 mm | - | - | - |
| 1777798037 | 17.22° C | 70% | 1017.9 hPa | 0 mm | - | - | - |
| 1777797435 | 17.22° C | 69% | 1018.1 hPa | 0 mm | - | - | - |
| 1777796836 | 16.67° C | 71% | 1018.1 hPa | 0 mm | - | - | - |
| 1777796236 | 16.67° C | 71% | 1018 hPa | 0 mm | - | - | - |
| 1777795637 | 16.11° C | 71% | 1018 hPa | 0 mm | - | - | - |
| 1777795037 | 16.11° C | 73% | 1018.1 hPa | 0 mm | - | - | - |
| 1777794438 | 15.56° C | 73% | 1018.1 hPa | 0 mm | - | - | - |
| 1777793838 | 15.56° C | 73% | 1018.1 hPa | 0 mm | - | - | - |
| 1777793236 | 15.56° C | 72% | 1018.1 hPa | 0 mm | - | - | - |
| 1777792636 | 15.56° C | 71% | 1018 hPa | 0 mm | - | - | - |
| 1777792037 | 15.56° C | 71% | 1018 hPa | 0 mm | - | - | - |
| 1777791437 | 15° C | 71% | 1018 hPa | 0 mm | - | - | - |
| 1777790837 | 15° C | 72% | 1018 hPa | 0 mm | - | - | - |
| 1777790238 | 14.44° C | 74% | 1018 hPa | 0 mm | - | - | - |
| 1777789635 | 14.44° C | 75% | 1018 hPa | 0 mm | - | - | - |
| 1777789035 | 13.89° C | 75% | 1017.9 hPa | 0 mm | - | - | - |
| 1777788436 | 13.33° C | 77% | 1017.9 hPa | 0 mm | - | - | - |
| 1777787836 | 12.78° C | 80% | 1017.8 hPa | 0 mm | - | - | - |
| 1777787237 | 12.22° C | 81% | 1017.7 hPa | 0 mm | - | - | - |
| 1777786637 | 12.78° C | 80% | 1017.7 hPa | 0 mm | - | - | - |
| 1777786038 | 13.33° C | 78% | 1017.6 hPa | 0 mm | - | - | - |
| 1777785435 | 13.33° C | 78% | 1017.5 hPa | 0 mm | - | - | - |
* Rain latest hour (hover to see other rain measurements)
** Current wind speed in m/s (hover to see current wind gust speed)